{"data":{"norad_id":57650,"epoch":"2026-09-19T19:04:03.872928Z","epoch_age_seconds":192529,"freshness":"STALE","line1":"1 57650U 23122U   26262.79448927 -.00000337  00000+0 -27148-5 0  9992","line2":"2 57650  43.0040  76.2263 0001847 271.3637  88.7003 15.27573636171898","mean_motion":15.27573636,"eccentricity":0.0001847,"inclination_deg":43.004,"raan_deg":76.2263,"arg_perigee_deg":271.3637,"mean_anomaly_deg":88.7003,"bstar":-2.7148e-6,"rev_number":17189,"period_min":94.26714143684,"perigee_km":481.80088761963,"apogee_km":484.33541680286,"semimajor_km":6861.2051522112,"source":"CELESTRAK","updated_at":"2026-09-21T09:00:33.668760Z"}}